Hourly Data Report for September 14, 2017

All times are specified in Local Standard Time (LST). Add 1 hour to adjust for Daylight Saving Time where and when it is observed.

GRAND MANAN SAR CS
NEW BRUNSWICK

44°42'43.400" N
66°48'06.900" W
78.20 m
8101925
71030
XGM

Download Data

Hourly Data (September 2017)
Hourly Data Report for September 14, 2017
Temp Definition
°C
Dew Point Temp Definition
°C
Rel Hum Definition
%
Wind Dir Definition
10's deg

Wind Spd Definition
km/h
Visibility Definition
km
Stn Press Definition
kPa
Hmdx Definition


Wind Chill Definition


Weather Definition


TIME
00:00 14.6 12.2 86 24 10   100.00     LegendNANA
01:00 14.8 12.2 85 24 12   100.02     LegendNANA
02:00 14.3 12.1 87 25 9   100.03     LegendNANA
03:00 13.7 12.2 91 26 8   100.02     LegendNANA
04:00 14.1 12.1 88 25 7   100.02     LegendNANA
05:00 13.4 12.1 92 23 8   100.03     LegendNANA
06:00 13.6 12.7 94 24 5   100.06     LegendNANA
07:00 15.0 13.8 92 28 4   100.10     LegendNANA
08:00 19.1 14.5 75 26 7   100.13     LegendNANA
09:00 21.0 14.8 68 24 6   100.16 25   LegendNANA
10:00 21.0 15.6 71 21 10   100.16 25   LegendNANA
11:00 22.1 15.8 67 21 11   100.16 27   LegendNANA
12:00 23.4 15.5 61 20 13   100.12 28   LegendNANA
13:00 23.8 15.9 61 26 11   100.11 28   LegendNANA
14:00 24.1 15.4 58 22 14   100.09 28   LegendNANA
15:00 23.3 15.3 61 25 11   100.09 27   LegendNANA
16:00 21.5 15.1 67 20 12   100.11 26   LegendNANA
17:00 19.9 15.0 73 24 10   100.13     LegendNANA
18:00 18.3 15.0 81 22 8   100.18     LegendNANA
19:00 16.3 15.3 94 23 10   100.25     LegendNANA
20:00 15.5 14.9 96 22 9   100.34     LegendNANA
21:00 15.1 14.7 98 24 10   100.36     LegendNANA
22:00 15.1 14.9 98 23 11   100.39     LegendNANA
23:00 15.3 15.1 99 24 10   100.44     LegendNANA

Notes on Data Quality.

Legend

  • E = Estimated
  • M = Missing
  • NA = Not Available
  • ‡ = Partner data that is not subject to review by the National Climate Archives
Date modified: